Location: Pine Mountain Observatory
(43.7910°N, 120.9377°W)
Time: 03:43:50
(UTC-07:00)

A-11 Canister half - Visible Passes

Search period start: 20 May 2019 00:00
Search period end: 30 May 2019 00:00
Orbit: 1525 x 1684 km, 47.3° (Epoch: 20 May)

Date Brightness Start Highest point End Pass type
(mag) Time Alt. Az. Time Alt. Az. Time Alt. Az.
20 May 10.3 21:47:19 10° WNW 21:55:27 30° SW 22:03:44 10° S visible
21 May 10.2 21:25:36 10° WNW 21:33:52 32° SW 21:42:19 10° S visible
22 May 10.2 21:03:53 10° WNW 21:12:17 33° SW 21:20:52 10° SSE visible
